Location: Drocourt
(49.0571°N, 1.7669°E)
Time: 13:34:30
(UTC+00:00)

SR - Pass Details

Date: 19 April 2024
Orbit: 579 x 859 km, 66.7° (Epoch: 28 May)

Event Time Altitude Azimuth Distance (km) Brightness Sun altitude
Rises 09:15:00 0° 327° (NNW) 3,044 ? 40.3°
Reaches altitude 10° 09:17:35 10° 336° (NNW) 2,078 ? 40.6°
Maximum altitude 09:21:51 34° 42° (NE) 1,037 ? 41.2°
Drops below altitude 10° 09:25:50 10° 108° (ESE) 1,945 ? 41.7°
Sets 09:28:11 0° 118° (ESE) 2,820 ? 42.0°
